FLOCK 2K-39 (42866 NORAD) Tracking and Keplerian Element Data

This shows tracking and keplerian element data for the satellite.

Feedback or suggestion? Click here.




ElementValue
Catalog42866
NameFLOCK 2K-39
Epoch Orbit23587
Epoch Day268.54064934
Epoch Year2021
RAAN116.5348
Inclination96.8412
Eccentricity0.0009414
Argument of Perigee69.1555
Mean Anonmoly291.0704
Mean Motion15.47873452
Decay Rate0.00022382
L11 42866U 17042AT 21268.54064934 .00022382 00000-0 43047-3 0 9992
L22 42866 96.8412 116.5348 0009414 69.1555 291.0704 15.47873452235879

Live tracking and technical data element details for FLOCK 2K-39 (NORAD 42866). FLOCK 2K-39 can be tracked NOW for your location showing map with azimuth and elevation plus other details from your city location.

Track the satellite on the map from your city or location and see movement details for azimuth, elevation, latitude, longitude, range, height, and movement on the map or in text.







IsCatalogInMostPopularTable: catalog: 42866, numindb: 545
Update: records affected: 1



GetName: 42866 FLOCK 2K-39

Hit Count: updated at: Mon, 27 Sep 2021 00:20:13 GMT